Location: Chittendens Corners
(41.2320°N, 81.4940°W)
Time: 17:07:15
(UTC+00:00)

Radarsat Rocket - Pass Details

Date: 29 October 2020
Orbit: 933 x 1492 km, 100.6° (Epoch: 27 November)

Event Time Altitude Azimuth Distance (km) Brightness Sun altitude
Rises 22:47:17 0° 168° (SSE) 3,757 7.1 -5.0°
Reaches altitude 10° 22:49:50 10° 170° (S) 2,755 6.4 -5.4°
Maximum altitude 22:55:52 72° 255° (WSW) 997 4.3 -6.5°
Drops below altitude 10° 23:01:41 10° 340° (NNW) 2,650 6.4 -7.6°
Sets 23:04:07 0° 342° (NNW) 3,605 7.1 -8.1°
